Location: Caracas
(10.4880°N, 66.8792°W)
Time: 06:04:39
(UTC+00:00)

Cosmos 2366 rocket - Pass Details

Date: 03 August 2024
Orbit: 955 x 995 km, 82.9° (Epoch: 08 September)

Event Time Altitude Azimuth Distance (km) Brightness Sun altitude
Rises 23:16:23 0° 165° (SSE) 3,629 6.7 -6.9°
Reaches altitude 10° 23:19:04 10° 157° (SSE) 2,680 5.9 -7.5°
Maximum altitude 23:24:37 36° 91° (E) 1,456 4.5 -8.8°
Drops below altitude 10° 23:30:08 10° 27° (NNE) 2,679 6.2 -10.1°
Sets 23:32:49 0° 19° (NNE) 3,627 7.0 -10.7°
